Home   Weather   Waidhofen an der Thaya   Past weeks

Flag for Austria Past Weather in Waidhofen an der Thaya, Lower Austria, Austria — Yesterday and Last 2 Weeks

51 °F


Feels Like: 51 °F
Forecast: 32 / 47 °F
Wind: 2 mph from Southeast

Location: Retz

Current Time: Oct 22, 2016 at 3:31:13 PM

Latest Report: Oct 22, 2016 at 3:00 PM

Visibility: N/A

Pressure: 29.98 "Hg (28.21 "Hg at 506m altitude)

Humidity: 64%

Dew Point: 39 °F

Location of Waidhofen an der ThayaLocation

Past Weather in Waidhofen an der Thaya — Graph


Waidhofen an der Thaya Temperature Yesterday

Maximum temperature yesterday: 45 °F (at 5:00 PM)
Minimum temperature yesterday: 38 °F (at 8:00 AM)
Average temperature yesterday: 42 °F

High & Low Weather Summary for the Past Weeks

High63 °F (Oct 16, 2:00 PM)100% (Oct 17, 5:00 PM)30.36 "Hg (Oct 17, 5:00 PM)
Low36 °F (Oct 22, 7:00 AM)58% (Oct 16, 5:00 PM)29.90 "Hg (Oct 15, 7:00 AM)
Average46 °F88%30.10 "Hg
* Reported Oct 7 2:00 PM — Oct 22 2:00 PM, Waidhofen an der Thaya, Weather by CustomWeather, © 2016

Note: Actual official high and low records may vary slightly from our data, if they occured in-between our weather recording intervals... More about our weather records


Waidhofen an der Thaya Weather History for the Previous 24 Hours

Scroll right to see more
Time TempWeatherWind HumidityBarometerVisibility
2:00 PM
Sat, Oct 22
51 °FCool.2 mph67%29.99 "HgN/A
1:00 PM50 °FCool.2 mph69%30.00 "HgN/A
12:00 PM47 °FCool.2 mph74%30.01 "HgN/A
11:00 AM44 °FQuite cool.2 mph78%30.03 "HgN/A
10:00 AM41 °FQuite cool.2 mph85%30.04 "HgN/A
9:00 AM36 °FChilly.1 mph93%30.05 "HgN/A
8:00 AM37 °FPassing clouds.1 mph90%30.04 "Hg4 mi
7:00 AM36 °FPassing clouds.2 mph91%30.03 "Hg4 mi
6:00 AM37 °FChilly.1 mph90%30.03 "HgN/A
5:00 AM39 °FChilly.3 mph83%30.01 "HgN/A
4:00 AM39 °FChilly.2 mph86%30.02 "HgN/A
3:00 AM37 °FChilly.1 mph94%30.02 "HgN/A
2:00 AM41 °FQuite cool.6 mph87%30.01 "HgN/A
1:00 AM42 °FQuite cool.7 mph85%30.01 "HgN/A
12:00 AM43 °FQuite cool.7 mph83%30.01 "HgN/A
11:00 PM
Fri, Oct 21
43 °FQuite cool.6 mph85%30.01 "HgN/A
10:00 PM43 °FQuite cool.5 mph88%29.99 "HgN/A
9:00 PM43 °FQuite cool.1 mph95%29.99 "HgN/A
8:00 PM43 °FPassing clouds.2 mph97%29.98 "Hg4 mi
7:00 PM44 °FQuite cool.1 mph97%29.97 "HgN/A
6:00 PM44 °FQuite cool.1 mph96%29.97 "HgN/A
5:00 PM45 °FQuite cool.1 mph94%29.95 "HgN/A
4:00 PM44 °FQuite cool.1 mph93%29.95 "HgN/A
3:00 PM43 °FQuite cool.2 mph96%29.96 "HgN/A
Weather by CustomWeather, © 2016

See weather overviewHow to use our weather pages